Change the Weather History Date:

Sunday, December 1, 2013

  Actual Average Record
Temperature  
Mean Temperature 59 °F 57 °F  
Max Temperature 70 °F 67 °F 83 °F (2012)
Min Temperature 48 °F 47 °F 26 °F (1979)
Degree Days  
Heating Degree Days 6 9  
Month to date heating degree days 6 9  
Since 1 July heating degree days 255 194  
Growing Degree Days 10 (Base 50)    
Moisture  
Dew Point 56 °F    
Average Humidity 84    
Maximum Humidity 100    
Minimum Humidity 68    
Precipitation  
Precipitation 0.00 in 0.15 in 5.80 in (1914)
Month to date precipitation 0.00 0.15  
Year to date precipitation 37.18 46.18  
Sea Level Pressure  
Sea Level Pressure 30.13 in    
Wind  
Wind Speed 4 mph (SE)    
Max Wind Speed 12 mph    
Max Gust Speed 14 mph    
Visibility 10 miles    
Events Fog    
T = Trace of Precipitation, MM = Missing Value Source: NWS Daily Summary

Daily Weather History Graph

Daily Weather History Graph

Search for Another Location

Airport or City:

Trip Planner

Search our weather history database for the weather conditions in past years. The results will help you decide how hot, cold, wet, or windy it might be!

Date:

Astronomy

Dec. 01, 2013 Rise Set
Actual Time 6:58 AM CST 5:21 PM CST
Civil Twilight 6:32 AM CST 5:47 PM CST
Nautical Twilight 6:03 AM CST 6:17 PM CST
Astronomical Twilight 5:34 AM CST 6:45 PM CST
Moon 5:23 AM CST (12/1) 4:27 PM CST (12/1)
Length of Visible Light 11h 14m
Length of Day
10h 22m
Waning Crescent, 2% of the Moon is Illuminated
Dec 1
Waning Crescent
Dec 2
New
Dec 9
First Quarter
Dec 17
Full
Dec 25
Last Quarter

Hourly Weather History & Observations

Time (CST) Temp. Dew Point Humidity Pressure Visibility Wind Dir Wind Speed Gust Speed Precip Events Conditions
12:53 AM 53.1 °F 52.0 °F 96% 30.23 in 10.0 mi Calm Calm - N/A Fog Patches of Fog
1:53 AM 53.1 °F 51.1 °F 93% 30.22 in 10.0 mi ESE 3.5 mph - N/A Fog Patches of Fog
2:53 AM 50.0 °F 50.0 °F 100% 30.22 in 10.0 mi NE 3.5 mph - N/A Fog Patches of Fog
3:53 AM 51.1 °F 51.1 °F 100% 30.24 in 10.0 mi Calm Calm - N/A   Mostly Cloudy
4:53 AM 53.1 °F 52.0 °F 96% 30.22 in 10.0 mi East 3.5 mph - N/A   Mostly Cloudy
5:53 AM 54.0 °F 52.0 °F 93% 30.20 in 10.0 mi ESE 5.8 mph - N/A   Scattered Clouds
6:53 AM 54.0 °F 52.0 °F 93% 30.21 in 10.0 mi ESE 5.8 mph - N/A   Mostly Cloudy
7:53 AM 55.9 °F 53.1 °F 90% 30.22 in 10.0 mi ESE 5.8 mph - N/A   Overcast
8:53 AM 57.9 °F 55.0 °F 90% 30.23 in 10.0 mi ESE 3.5 mph - N/A   Overcast
9:53 AM 61.0 °F 55.9 °F 83% 30.23 in 10.0 mi ESE 4.6 mph - N/A   Overcast
10:53 AM 64.0 °F 57.0 °F 78% 30.21 in 10.0 mi SE 6.9 mph - N/A   Overcast
11:53 AM 66.9 °F 57.9 °F 73% 30.18 in 10.0 mi SSE 5.8 mph - N/A   Overcast
12:53 PM 70.0 °F 57.9 °F 65% 30.14 in 10.0 mi SSE 8.1 mph - N/A   Overcast
1:53 PM 70.0 °F 57.9 °F 65% 30.11 in 10.0 mi SSE 5.8 mph - N/A   Overcast
2:53 PM 70.0 °F 57.9 °F 65% 30.09 in 10.0 mi South 9.2 mph - N/A   Overcast
3:53 PM 69.1 °F 57.9 °F 68% 30.07 in 10.0 mi South 10.4 mph - N/A   Mostly Cloudy
4:53 PM 66.9 °F 57.9 °F 73% 30.06 in 10.0 mi SSE 6.9 mph - N/A   Mostly Cloudy
5:53 PM 64.9 °F 57.9 °F 78% 30.05 in 10.0 mi SSE 6.9 mph - N/A   Mostly Cloudy
6:53 PM 64.0 °F 57.0 °F 78% 30.03 in 10.0 mi SSE 5.8 mph - N/A   Mostly Cloudy
7:53 PM 63.0 °F 57.9 °F 84% 30.03 in 10.0 mi South 8.1 mph - N/A   Mostly Cloudy
8:53 PM 62.1 °F 57.9 °F 86% 30.03 in 10.0 mi SSE 5.8 mph - N/A   Mostly Cloudy
9:53 PM 63.0 °F 59.0 °F 87% 30.01 in 10.0 mi South 8.1 mph - N/A   Mostly Cloudy
10:53 PM 63.0 °F 59.0 °F 87% 29.99 in 10.0 mi South 8.1 mph - N/A   Mostly Cloudy
11:53 PM 63.0 °F 59.0 °F 87% 29.97 in 10.0 mi South 5.8 mph - N/A   Mostly Cloudy